OBJECT G, 63297

Orbit data source: Space-Track

You're viewing an Uncataloged Satellite

Recently launched and/or uncataloged satellites may have evolving metadata. Metadata may include but not limited to: Owner, Maufacturer, Bus, Motor, and Mission.

OBJECT G, 63297 is a Chinese satellite in SSO that was launched on Mon, 17 Mar 2025 UTC via a GUSHENXING 1 launch vehicle from the Jiuquan Satellite Launch Center, China (JSC). Unknown objects in Earth's orbit typically refer to objects detected orbiting the Earth but have not yet been identified or cataloged. These objects could be anything from previously untracked satellites, spent rocket stages, debris from satellite collisions, or even natural meteoroids temporarily captured by Earth's gravity.

Loading next visibility...
Identifier
63297, 2025-055G
Orbit
SSO
Country
Flag of CNCN / PRC
Related business
None
Manufacturer
Unknown
Mission
Operational Commercial Imaging
Bus & Motor
Unknown
Mass
Unknown
Launch date (UTC)
2025-03-17 (7 months ago)
Launch vehicle
GUSHENXING 1
Launch site
Jiuquan Satellite Launch Center, China (JSC)
Object type
Unknown
Shape & HBR
Box + 3 Pan, 0.5 m
Radar Cross Section
3.533 m², Medium (>0.1 m² and < 1m²)

Expand to show TLE details & history
Last TLE update: 21 hours ago

TLE from 21 hours ago
0 OBJECT G
1 63297U 25055G   25301.64600514  .00019370  00000-0  99841-3 0  9995
2 63297  97.6265  76.6329 0010036 238.3951 121.6303 15.16371723 34030
Epoch: 2025-10-28T15:30Z
TLE epoch observation values (Epoch: 2025-10-28T15:30:14.844Z)
Latitude
0.00004°
Longitude
166.84053°
Altitude
523.531 km
Speed
7.599 km/s
True Right ascension
05h 06m 31s
True Declination
0° 00' 00"
Sunlit
Object was in full shadow at epoch
Visualization orbit readout
Latitude
Unknown
Longitude
Unknown
Altitude
Unknown
Speed
Unknown
Apparent Right ascension
Unknown
Apparent Declination
Unknown
Sunlit
N/A
Visualization observer readout
Local Sidereal Time
08:22:28
Azimuth
Unknown
Elevation
Unknown
Doppler factor
Unknown
Orbital elements
Apogee altitude
520.714 km
Perigee altitude
506.881 km
Semi-major axis
6,891.934 km
Eccentricity
0.001
Inclination
97.6265°
RAAN
76.6329°
Arg. of periapsis
238.3951°
True anomaly
121.72816°
Mean anomaly
121.6303°
Eccentric anomaly
121.67923°
Mean motion
3.79342 °/min
Orbital period
94.9 mins
BSTAR
0.00099841
Loading maneuver chart data...
Computing Atmospheric mass density...
Loading historical data...
Loading historical data...
Loading historical data...
Loading historical data...
Loading historical data...
Loading historical data...
Loading historical data...

Documentation

Showing up to 5 results
|